Regional Weather Roundup
Issued by NWS State College, PA

Home | Current Version | Previous Version | Graphics & Text | Print | Product List | Glossary Off
Versions: 1 2 3 4 5 6 7 8 9 10 11 12 13 14 15 16 17 18 19 20 21 22 23 24 25 26 27 28 29 30 31 32 33 34 35 36 37 38 39 40 41 42 43 44 45 46 47 48 49 50

000
ASUS41 KCTP 210910
RWRCTP

REGIONAL WEATHER ROUNDUP
NATIONAL WEATHER SERVICE STATE COLLEGE PA
500 AM EDT TUE APR 21 2015

Note: "fair" indicates few or no clouds below 12,000 feet with no
significant weather and/or obstructions to visibility.

* = STATION THAT DOES NOT REPORT PRECIPITATION /E.G. RAIN...SNOW...ETC/
    THUNDER OR FOG.

PAZ002>004-007>009-013>016-020>023-029>032-211000-
WESTERN PENNSYLVANIA

CITY           SKY/WX    TMP DP  RH WIND       PRES   REMARKS
ERIE           LGT RAIN  46  35  65 SW14      29.62S
MEADVILLE      MOCLDY    43  29  57 SW12G24   29.65R
FRANKLIN*      CLOUDY    43  28  56 SW13G18   29.68R
NEW CASTLE     PTSUNNY   46  33  60 SW12G22   29.71R
BEAVER COUNTY  NOT AVBL
BUTLER*        CLOUDY    45  32  61 W10G21    29.71S
PITTSBURGH INT CLOUDY    47  30  51 W13G21    29.71R
PITTSBURGH     CLOUDY    46  29  51 W13       29.71R
INDIANA*       CLOUDY    46  34  61 W9G17     29.73R
LATROBE        MOCLDY    46  37  71 SW7       29.73S
WASHINGTON CO* CLOUDY    46  34  61 W5        29.75R
$$

PAZ004>006-010>012-017>019-024>028-033>037-041-042-045-046-049>053-211000-
CENTRAL PENNSYLVANIA

CITY           SKY/WX    TMP DP  RH WIND       PRES   REMARKS
BRADFORD       MOCLDY    41  33  73 SW8       29.62S
DUBOIS         CLOUDY    44  32  62 SW13      29.65S
CLEARFIELD     CLOUDY    46  33  60 SW12      29.67R
JOHNSTOWN      CLOUDY    43  32  65 W15G24    29.67S
ALTOONA        CLOUDY    47  39  74 W9        29.69R
STATE COLLEGE  CLOUDY    49  40  72 W9        29.65F
WILLIAMSPORT   LGT RAIN  53  48  83 W6        29.61R
SELINSGROVE    CLOUDY    54  46  74 W7        29.64R
FT INDIANTOWN  CLOUDY    56  49  78 W12       29.60S
CAPITAL CITY   LGT RAIN  56  47  71 W13G21    29.65R
HARRISBURG     LGT RAIN  56  48  74 NW16      29.64R
YORK           RAIN      55  50  83 W6        29.65R
$$

PAZ038>040-043-044-047-048-054-055-060>062-067>071-211000-
EASTERN PENNSYLVANIA

CITY           SKY/WX    TMP DP  RH WIND       PRES   REMARKS
SCRANTON       LGT RAIN  53  49  86 MISG      29.59R FOG
MOUNT POCONO   FOG       50  49  96 S3        29.57R VSB 1/4
ALLENTOWN      CLOUDY    54  53  97 NW6       29.58R FOG
QUAKERTOWN*    CLOUDY    54  54 100 W5        29.60R
READING        HVY RAIN  55  54  96 NW15G21   29.61R FOG
LANCASTER      CLOUDY    56  53  90 W13       29.61S
COATESVILLE    LGT RAIN  55  55 100 W6        29.61R
POTTSTOWN      CLOUDY    56  56 100 CALM      29.61R
BLUE BELL      CLOUDY    57  57 100 CALM      29.57S
DOYLESTOWN     CLOUDY    54  54 100 S5        29.57R
WILLOW GROVE   NOT AVBL
NORTH PHILA    LGT RAIN  59  54  83 SE5       29.59S
PHILADELPHIA   LGT RAIN  59  57  93 S5        29.59S FOG
$$



USA.gov is the U.S. government's official web portal to all federal, state and local government web resources and services.